User: anonymous   Login
Location: Unspecified
(0.0000°N, 0.0000°E)
Time: 15:11:57
(UTC+00:00)
Language:

GEOS 3 - Orbit

View from above orbital plane
View from above orbital plane
View from above satellite
View from above satellite

Ground track
Ground track

The orbit data is extracted from the following two-line orbital elements,

1 07734U 75027A   18051.54675172 -.00000140  00000-0  17139-4 0  9995
2 07734 114.9899 225.7661 0024453 293.8333  66.0182 14.18615387218437
Epoch (UTC): 20 February 2018 13:07:19
Eccentricity: 0.0024453
inclination: 114.9899°
perigee height: 812 km
apogee height: 847 km
right ascension of ascending node: 225.7661°
argument of perigee: 293.8333°
revolutions per day: 14.18615387
mean anomaly at epoch: 66.0182°
orbit number at epoch: 21843

The dashed part of the orbit path shows where the satellite is in the earth's shadow,  

DLR